Location: 22
(39.7117°N, 89.5929°W)
Time: 08:03:22
(UTC-05:00)

Transit 2A - Pass Details

Date: 12 August 2024
Orbit: 590 x 961 km, 66.7° (Epoch: 13 September)

Event Time Altitude Azimuth Distance (km) Brightness Sun altitude
Exits shadow 05:55:06 - 276° (W) 3,400 8.8 -3.2°
Rises 05:55:11 0° 276° (W) 3,380 8.8 -3.2°
Reaches altitude 10° 05:59:49 10° 311° (NW) 2,545 8.4 -2.4°
Maximum altitude 06:01:30 11° 327° (NNW) 2,494 8.6 -2.1°
Drops below altitude 10° 06:03:12 10° 344° (NNW) 2,605 8.8 -1.7°
Sets 06:08:11 0° 18° (NNE) 3,616 10.1 -0.9°
